[Iaude] MPEC G104: 2024 GL1 [a=1.05,e=0.16,i=3.3,H=25.3]
    mpec at cfa.harvard.edu 
    mpec at cfa.harvard.edu
       
    Mon Apr  8 23:07:46 EDT 2024
    
    
  
M.P.E.C. 2024-G104                                Issued 2024 April 9, 03:06 UT
     The Minor Planet Electronic Circulars contain information on unusual
         minor planets, routine data on comets and natural satellites,
         and occasional editorial announcements.  They are published
    on behalf of Division F of the International Astronomical Union by the
          Minor Planet Center, Smithsonian Astrophysical Observatory,
                          Cambridge, MA 02138, U.S.A.
			  
             Prepared using the Tamkin Foundation Computer Network
                              MPC at CFA.HARVARD.EDU
            URL https://www.minorplanetcenter.net/    ISSN 1523-6714
                                    2024 GL1                                    
Observations:
     K24G01L* C2024 04 07.28556509 56 46.842-10 13 07.74         20.23wXEG104F52
     K24G01L  C2024 04 07.29741909 56 53.478-10 12 16.56         20.66wXEG104F52
     K24G01L  C2024 04 07.32111709 57 06.477-10 10 35.63         20.44wXEG104F52
     K24G01L 3C2024 04 08.40430010 07 48.822-08 55 54.92         20.25GVEG104T14
     K24G01L 3C2024 04 08.40527810 07 49.321-08 55 50.99         20.11GVEG104T14
     K24G01L 3C2024 04 08.40625410 07 49.826-08 55 47.00         20.04GVEG104T14
     K24G01L 3C2024 04 08.40723010 07 50.328-08 55 43.05         20.01GVEG104T14
     K24G01L 3C2024 04 08.40845210 07 50.962-08 55 38.06         20.10GVEG104T14
     K24G01L 3C2024 04 08.40942710 07 51.465-08 55 34.11         20.23GVEG104T14
     K24G01L 3C2024 04 08.41040210 07 51.967-08 55 30.14         20.44GVEG104T14
     K24G01L 3C2024 04 08.41137910 07 52.473-08 55 26.16         20.73GVEG104T14
     K24G01L KC2024 04 09.10347910 14 25.92 -08 11 29.5          20.4 GVEG104H21
     K24G01L KC2024 04 09.10629510 14 27.28 -08 11 18.7          20.8 GVEG104H21
     K24G01L KC2024 04 09.10899810 14 28.61 -08 11 08.8          21.5 GVEG104H21
     K24G01L KC2024 04 09.11263110 14 30.35 -08 10 54.5          21.1 GVEG104H21
Observer details:
F52 Pan-STARRS 2, Haleakala.  Observers J. Herman, T. Lowe, P. Minguez, A.
    Schultz, I. Smith.  Measurers K. Chambers, T. de Boer, J. Fairlamb, H.
    Gao, M. Huber, C.-C. Lin, E. Magnier, Y. Ramanjooloo, R. Wainscoat, R.
    Weryk.  1.8-m Ritchey-Chretien + CCD.
H21 Astronomical Research Observatory, Westfield.  Observer R. Holmes.
    Measurers T. Linder, R. Holmes, L. Horn.  0.76-m f/3.0 astrograph + CCD.
T14 Canada-France-Hawaii Telescope, Maunakea.  Observers R. Wainscoat, L.
    Wells, T. Burdullis.  Measurers R. Weryk, R. Wainscoat.  3.6-m f/4.1
    reflector + CCD.
Orbital elements:
2024 GL1                                                 Earth MOID = 0.0070 AU
Epoch 2024 Mar. 31.0 TT = JDT 2460400.5                 MPC                     
M  67.56550              (2000.0)            P               Q                  
n   0.91014547     Peri.  250.66312     -0.23187111     -0.97223613             
a   1.0545379      Node   212.79512     +0.91288906     -0.20630226             
e   0.1592680      Incl.    3.33480     +0.33596034     -0.11043681             
P   1.08           H   25.39          G   0.15           U   7                  
Residuals in seconds of arc
240407 F52  0.1-  0.0     240408 T14  0.0   0.0     240408 T14  0.0   0.0
240407 F52  1.1+  0.6+    240408 T14  0.0   0.0     240409 H21  0.1+  0.1-
240407 F52  0.1-  0.1-    240408 T14  0.0   0.0     240409 H21  0.0   0.1+
240408 T14  0.1+  0.0     240408 T14  0.0   0.0     240409 H21  0.2+  0.2-
240408 T14  0.0   0.0     240408 T14  0.0   0.0     240409 H21  0.3-  0.3+
Ephemeris:
2024 GL1                 a,e,i = 1.05, 0.16, 3                   q = 0.8866
Date    TT    R. A. (2000) Decl.     Delta      r    Elong.  Phase     V
2024 03 10    03 05 18.9 -23 38 52   0.06281 0.9606    57.3   119.6    24.1
...
2024 03 25    06 20 41.6 -26 31 33   0.03772 0.9991    91.7    86.1    21.3
...
2024 04 02    08 48 39.8 -17 21 17   0.03991 1.0205   120.8    57.3    20.5
...
2024 04 08    10 03 59.4 -09 21 48   0.04967 1.0367   134.6    43.5    20.6
2024 04 09    10 13 28.1 -08 16 01   0.05177 1.0394   136.0    42.0    20.7
2024 04 10    10 22 14.3 -07 14 48   0.05399 1.0421   137.2    40.8    20.7
...
2024 04 16    11 03 17.8 -02 34 12   0.06908 1.0582   141.1    36.6    21.2
...
2024 04 24    11 38 45.9 +00 52 22   0.09273 1.0791   140.8    36.1    21.9
...
2024 05 09    12 20 09.6 +02 56 27   0.1447  1.1161   134.7    40.0    23.0
A. U. Tomatic                (C) Copyright 2024 MPC           M.P.E.C. 2024-G104
    
    
More information about the Iaude
mailing list